STARLINK-5455, 55668

Orbit data source: Space-Track

STARLINK-5455, 55668 is a payload satellite owned by SpaceX/Seattle (US) in LEO that was launched on Fri, 17 Feb 2023 UTC via an FALCON 9 launch vehicle from the Air Force Western Test Range (AFWTR). Payload-class satellites include a variety of spacecraft equipped with specific instruments for various scientific and technological missions. These include communications satellites like Starlink; space stations such as the ISS; scientific satellites like the Hubble; Earth observation satellites from companies like Planet Labs, Umbra, and HawkEye 360; GPS; miniature CubeSats for education and research; and military/defense satellites.

Loading next visibility...
Identifier
55668, 2023-021AS
Orbit
LEO
Country
Flag of USUS
Related business
Manufacturer
SpaceX/Seattle
Mission
Operational Commercial Communications
Bus & Motor
STARLINK, Unknown motor
Mass
305 kg wet, ~290 kg dry
Launch date (UTC)
2023-02-17 (3 years ago)
Launch vehicle
FALCON 9
Launch site
Air Force Western Test Range (AFWTR)
Object type
Payload
Rocket body
Debris
Shape & HBR
Box + 1 Pan, 10.1 m
Radar Cross Section
13.562 m², Large (>1 m²)

Expand to show TLE details & history
Last TLE update: 2 days ago

TLE from 2 days ago
0 STARLINK-5455
1 55668U 23021AS  26171.43727253 -.00000224  00000-0 -10998-4 0  9999
2 55668  69.9998 265.4503 0003208 269.1416  90.9375 14.98329838184662
Epoch: 2026-06-20T10:29Z
TLE epoch observation values (Epoch: 2026-06-20T10:29:40.346Z)
Latitude
-0.00008°
Longitude
-160.61974°
Altitude
574.517 km
Speed
7.574 km/s
True Right ascension
17h 41m 48s
True Declination
0° 00' 00"
Sunlit
Object was in full shadow at epoch
Visualization orbit readout
Latitude
Unknown
Longitude
Unknown
Altitude
Unknown
Speed
Unknown
Apparent Right ascension
Unknown
Apparent Declination
Unknown
Sunlit
N/A
Visualization observer readout
Local Sidereal Time
21:42:03
Azimuth
Unknown
Elevation
Unknown
Doppler factor
Unknown
Orbital elements
Apogee altitude
572.234 km
Perigee altitude
567.776 km
Semi-major axis
6,948.142 km
Eccentricity
0.00032
Inclination
69.9998°
RAAN
265.4503°
Arg. of periapsis
269.1416°
True anomaly
90.97426°
Mean anomaly
90.9375°
Eccentric anomaly
90.95588°
Mean motion
3.74749 °/min
Orbital period
96.06 mins
BSTAR
-0.000010998
Loading maneuver chart data...
Computing Atmospheric mass density...

Documentation

Showing up to 5 results
|